Regional Weather Roundup
Issued by NWS

Home | Current Version | Previous Version | Text Only | Print | Product List | Glossary Off
Versions: 1 2 3 4 5 6 7 8 9 10 11 12 13 14 15 16 17 18 19 20 21 22 23 24 25 26 27 28 29 30 31 32 33 34 35 36 37 38 39 40 41 42 43 44 45 46 47 48 49 50

829
ASUS43 KFSD 251710
RWRSD

WEATHER ROUNDUP FOR SOUTH DAKOTA
NATIONAL WEATHER SERVICE SIOUX FALLS SD
1200 PM CDT MON JUL 25 2016

NOTE: "FAIR" INDICATES FEW OR NO CLOUDS BELOW 12,000 FEET WITH NO
SIGNIFICANT WEATHER AND/OR OBSTRUCTIONS TO VISIBILITY.


SDZ001>005-009-010-012>017-251800-
NORTHWEST AND NORTH CENTRAL SOUTH DAKOTA

CITY           SKY/WX    TMP DP  RH WIND       PRES   REMARKS
BUFFALO          N/A     91  51  25 MISG      29.96F
FAITH            N/A     89  53  29 S20       30.02F
MOBRIDGE       SUNNY     90  60  36 S16       29.99F
$$

SDZ012>016-024>037-041>051-057-063-072>074-251800-
SOUTHWEST AND SOUTH CENTRAL SOUTH DAKOTA

CITY           SKY/WX    TMP DP  RH WIND       PRES   REMARKS
RAPID CTY ARPT SUNNY     86  58  38 S17G26    30.08S
PIERRE         SUNNY     90  57  32 S17G29    30.03F
CUSTER         SUNNY     77  52  41 S8        30.22F
ELLSWORTH AFB  SUNNY     85  58  40 S23       30.05F
PHILIP         SUNNY     91  58  32 S13G18    30.04F
PINE RIDGE     SUNNY     85  56  37 S16G24    30.13S
WINNER         FAIR      88  44  21 S17       30.11F
$$

SDZ004>011-016>023-039-040-251800-
NORTHEAST SOUTH DAKOTA

CITY           SKY/WX    TMP DP  RH WIND       PRES   REMARKS
ABERDEEN       SUNNY     85  61  44 S14       30.05F
WATERTOWN      SUNNY     84  61  45 SW13      30.11S
BROOKINGS      SUNNY     81  64  56 SW12      30.12F
SISSETON         N/A     86  57  37 SW12      30.05S
$$

SDZ017-020-022-023-036>040-048>070-251800-
SOUTHEAST SOUTH DAKOTA

CITY           SKY/WX    TMP DP  RH WIND       PRES   REMARKS
SIOUX FALLS    MOSUNNY   82  60  47 VRB6      30.12F
HURON          SUNNY     85  60  42 S15G24    30.08F
CHAMBERLAIN    SUNNY     87  57  36 S15       30.10S
MITCHELL       SUNNY     85  60  42 SW10      30.11F
YANKTON        SUNNY     82  57  42 S10       30.11S
$$

ABBREVIATIONS USED IN REMARKS
   TC - TEMPERATURE IN CELSIUS
  WCI - WIND CHILL INDEX
   HX - HEAT INDEX
  VSB - VISIBILITY





USA.gov is the U.S. government's official web portal to all federal, state and local government web resources and services.